Vorticity
34 -26 6 -6 35 23 -2 2 4 5 16 6 0 15 20 16 21 7 9 21 15 -3 3 3 5 4 5 5 3 -1 4 6 5 11 8 7 5 4 4 2 1 2 4 3
16 10 26 17 23 13 8 -1 10 6 -19 -2 16 -5 31 16 -5 20 10 8 21 12 -4 1 6 5 3 6 3 6 6 5 5 3 4 3 5 6 8 5 5 2 4 3
5 12 5 10 35 11 19 -3 8 14 13 3 6 -3 11 -3 -0 1 30 5 11 15 10 7 3 7 5 5 4 4 0 9 12 9 14 12 4 4 4 4 7 6 4 2
-27 18 -15 9 39 8 -13 0 3 4 20 15 11 0 21 15 7 0 10 19 2 3 11 9 5 9 -1 8 6 4 9 -3 1 7 7 3 8 9 6 4 2 3 4 4
5 25 9 -1 25 15 20 8 -5 -1 3 12 14 0 4 21 16 13 -1 11 25 5 5 7 7 9 14 -5 4 3 4 7 6 1 -2 1 -0 2 3 5 5 4 5 4
12 1 24 13 30 9 18 2 9 9 2 9 8 10 5 2 26 14 18 1 8 32 4 8 5 6 11 18 8 -2 -6 -2 5 -3 4 1 1 1 1 -2 0 2 3 3
-21 -15 15 10 19 24 0 -12 10 7 8 4 5 8 6 19 13 18 23 17 5 10 37 -8 -6 0 5 4 10 8 6 14 8 -5 1 5 5 4 3 3 7 4 1 3
19 12 19 9 8 28 22 10 5 9 -2 3 7 9 7 7 12 23 10 22 4 7 23 31 44 -2 -6 -5 -14 4 4 9 18 18 12 9 8 8 11 13 11 10 10 14
-4 18 9 10 13 11 14 5 6 9 2 -0 4 10 15 6 5 18 24 22 27 13 3 23 -15 40 11 22 26 25 14 -3 3 5 12 9 12 17 12 12 15 11 7 6
-5 3 5 9 9 9 16 12 8 5 2 2 -0 -1 13 2 7 4 10 19 25 18 17 15 25 2 34 24 4 -5 8 18 8 8 11 9 3 6 11 4 3 8 11 8
-8 9 8 15 8 13 12 14 12 7 2 0 5 11 3 2 6 8 5 11 16 19 22 17 11 13 6 4 19 15 9 3 14 7 1 5 4 8 1 10 8 3 6 8
-4 -8 2 9 12 1 3 5 14 12 8 4 2 0 -1 6 2 2 5 12 1 10 17 21 17 21 16 14 6 5 12 1 10 10 1 10 8 6 10 2 3 8 8 7
-1 -9 -4 9 3 8 10 13 10 13 16 14 10 14 8 8 6 3 8 1 7 3 7 9 17 14 11 15 20 11 12 16 39 20 15 13 3 2 -1 5 10 8 8 7
23 20 -1 -1 1 5 3 7 9 11 12 9 10 7 9 4 8 5 11 2 4 3 5 5 8 11 14 18 14 11 10 12 13 13 17 17 19 16 12 3 6 5 7 10
15 11 10 14 6 4 4 -2 2 3 4 15 1 13 11 13 8 6 8 4 2 2 10 4 4 6 11 15 18 17 13 9 7 8 9 9 8 10 11 15 16 15 12 14
13 3 11 20 10 6 1 2 4 9 7 5 4 1 8 5 10 15 8 4 3 0 10 9 6 1 4 13 13 14 16 14 15 17 12 10 10 10 11 13 12 12 13 13
13 14 7 3 4 1 -0 10 4 7 8 12 11 5 13 8 5 7 9 12 5 10 2 13 3 2 2 13 20 16 14 12 11 10 10 9 8 8 8 11 11 12 11 9
9 11 10 13 14 13 12 7 8 2 3 7 4 8 10 15 15 18 15 9 -0 11 16 8 9 6 7 12 11 9 10 11 13 12 12 11 11 11 18 23 16 13 13 16
8 6 7 8 9 8 9 14 13 14 12 17 12 12 20 14 13 18 23 17 15 10 6 5 2 -0 26 6 5 8 6 12 16 16 11 9 -0 1 12 17 18 18 18 28
8 9 9 12 9 8 9 11 12 14 10 13 13 12 11 10 12 9 12 18 11 11 8 8 7 13 9 12 17 24 12 6 11 19 26 18 25 19 22 0 10 11 5 6
5 6 7 8 9 13 14 9 10 9 10 11 10 10 11 11 13 11 7 7 9 14 18 24 19 17 16 6 6 3 10 10 3 10 7 8 9 11 19 12 5 -1 10 14
15 8 8 8 7 7 7 7 8 12 11 9 11 11 14 13 12 13 12 17 16 11 8 7 9 10 10 7 4 6 9 13 9 2 7 8 6 6 4 15 26 28 17 16
8 16 15 13 14 10 6 9 9 10 13 12 11 13 12 14 12 15 11 14 13 10 9 9 7 10 11 8 6 6 7 10 11 15 12 10 2 11 3 17 22 8 6 9
16 11 6 6 14 15 16 16 14 12 11 10 8 7 8 9 14 17 9 13 15 14 13 11 12 12 13 13 13 13 10 9 9 7 8 10 16 7 6 14 8 6 16 22
16 16 19 21 26 18 15 8 4 4 5 6 11 9 9 12 12 13 11 13 11 12 12 15 13 13 12 13 14 13 12 9 9 9 14 9 10 9 10 9 6 13 15 6
8 12 11 7 6 12 13 12 16 26 29 23 13 4 5 14 11 11 12 10 12 11 11 11 10 8 5 11 9 4 6 7 10 12 2 0 2 5 4 9 13 11 7 19
Height
5609 5619 5628 5640 5651 5663 5671 5681 5686 5695 5700 5709 5714 5718 5725 5731 5736 5741 5747 5754 5760 5767 5774 5781 5787 5793 5799 5803 5808 5812 5816 5820 5824 5826 5828 5831 5834 5836 5839 5840 5842 5844 5845 5845
5611 5623 5631 5639 5647 5654 5665 5676 5685 5693 5701 5706 5709 5715 5718 5725 5732 5736 5741 5747 5755 5760 5767 5774 5780 5786 5792 5797 5801 5806 5810 5813 5816 5819 5822 5825 5828 5831 5833 5835 5836 5838 5838 5839
5614 5624 5630 5637 5647 5656 5666 5677 5684 5692 5697 5702 5706 5713 5717 5722 5726 5731 5736 5743 5748 5754 5759 5766 5774 5780 5785 5790 5794 5799 5803 5807 5809 5812 5816 5817 5820 5824 5826 5828 5829 5830 5830 5831
5617 5624 5632 5640 5648 5657 5666 5675 5682 5690 5695 5701 5704 5712 5712 5716 5722 5726 5730 5735 5741 5747 5752 5756 5765 5771 5777 5782 5787 5792 5795 5800 5802 5806 5809 5811 5813 5816 5818 5819 5821 5822 5822 5823
5622 5629 5634 5641 5649 5657 5664 5673 5682 5688 5692 5696 5701 5705 5708 5712 5715 5720 5724 5728 5733 5737 5743 5749 5756 5762 5767 5774 5779 5783 5787 5792 5796 5798 5801 5803 5806 5808 5809 5810 5811 5812 5813 5813
5625 5632 5637 5643 5649 5656 5665 5674 5681 5686 5690 5694 5698 5702 5705 5706 5710 5712 5716 5721 5725 5729 5736 5742 5747 5754 5760 5765 5770 5775 5779 5783 5786 5789 5791 5793 5795 5797 5799 5801 5802 5803 5804 5804
5628 5634 5639 5645 5650 5657 5665 5672 5679 5685 5688 5692 5694 5697 5700 5702 5703 5706 5710 5715 5718 5723 5729 5733 5740 5747 5752 5756 5761 5764 5768 5771 5775 5778 5781 5783 5785 5787 5789 5790 5792 5793 5794 5795
5633 5639 5641 5645 5651 5657 5662 5672 5678 5682 5685 5689 5691 5694 5697 5699 5699 5701 5704 5708 5712 5718 5722 5726 5730 5737 5741 5746 5751 5754 5757 5761 5765 5768 5771 5772 5774 5776 5778 5779 5781 5782 5783 5784
5637 5640 5643 5648 5652 5657 5662 5668 5674 5678 5682 5684 5688 5692 5695 5695 5696 5697 5698 5701 5704 5710 5714 5717 5719 5725 5730 5737 5741 5744 5747 5750 5754 5756 5758 5760 5763 5765 5766 5768 5769 5771 5772 5773
5639 5642 5645 5649 5653 5658 5662 5667 5673 5677 5680 5683 5686 5689 5691 5692 5694 5695 5696 5697 5699 5701 5705 5708 5712 5717 5721 5727 5730 5734 5737 5739 5742 5745 5747 5750 5752 5754 5756 5757 5758 5760 5760 5761
5641 5644 5647 5649 5653 5658 5662 5665 5669 5673 5677 5679 5683 5685 5688 5689 5690 5692 5693 5694 5695 5697 5699 5700 5704 5708 5713 5717 5721 5723 5726 5728 5731 5733 5736 5739 5741 5743 5745 5747 5748 5749 5749 5749
5643 5647 5648 5653 5655 5658 5661 5664 5666 5669 5674 5676 5679 5682 5682 5685 5687 5688 5689 5691 5691 5693 5695 5697 5699 5701 5703 5706 5708 5711 5715 5717 5720 5722 5725 5728 5729 5732 5734 5735 5736 5737 5738 5738
5646 5647 5649 5651 5655 5656 5659 5662 5665 5667 5668 5671 5674 5679 5677 5680 5682 5684 5684 5685 5687 5688 5690 5691 5692 5694 5695 5696 5698 5699 5702 5706 5709 5711 5714 5715 5717 5719 5722 5723 5725 5725 5726 5726
5646 5648 5650 5651 5653 5656 5657 5659 5660 5661 5663 5665 5668 5671 5670 5675 5675 5677 5678 5679 5680 5682 5684 5686 5687 5689 5690 5690 5691 5692 5693 5695 5697 5699 5702 5704 5706 5707 5709 5711 5712 5712 5713 5713
5644 5645 5647 5648 5650 5652 5654 5656 5657 5658 5661 5660 5664 5664 5667 5668 5670 5671 5670 5674 5674 5677 5678 5679 5680 5682 5682 5683 5683 5684 5686 5687 5688 5689 5690 5692 5694 5695 5697 5698 5699 5700 5700 5701
5641 5643 5644 5645 5647 5649 5651 5652 5653 5654 5655 5655 5656 5658 5658 5661 5662 5663 5665 5666 5668 5670 5671 5671 5673 5674 5674 5675 5675 5676 5677 5678 5680 5682 5683 5683 5684 5685 5685 5685 5686 5687 5688 5689
5640 5640 5641 5643 5643 5644 5646 5648 5648 5649 5649 5649 5649 5650 5651 5653 5656 5657 5657 5659 5660 5662 5662 5663 5664 5664 5665 5666 5666 5667 5668 5669 5670 5671 5673 5674 5674 5675 5675 5675 5675 5675 5676 5677
5637 5637 5637 5639 5639 5640 5643 5643 5643 5643 5644 5643 5644 5642 5642 5644 5646 5647 5648 5650 5652 5653 5654 5655 5655 5656 5657 5657 5658 5659 5660 5661 5662 5663 5664 5665 5665 5664 5664 5663 5663 5664 5664 5665
5633 5633 5633 5633 5633 5634 5635 5637 5637 5636 5637 5635 5636 5636 5635 5636 5636 5636 5639 5640 5642 5643 5645 5647 5647 5648 5649 5650 5650 5650 5651 5652 5652 5653 5654 5654 5654 5654 5654 5652 5653 5653 5653 5653
5628 5628 5629 5628 5627 5628 5629 5629 5628 5628 5628 5629 5628 5628 5628 5628 5629 5629 5630 5632 5633 5635 5636 5637 5639 5640 5641 5642 5642 5642 5643 5644 5644 5644 5644 5644 5644 5644 5644 5644 5644 5645 5646 5645
5623 5622 5622 5622 5621 5623 5623 5623 5622 5622 5624 5623 5622 5621 5621 5622 5622 5623 5622 5623 5624 5626 5627 5628 5630 5632 5633 5634 5635 5635 5636 5636 5637 5637 5637 5637 5637 5636 5637 5637 5637 5637 5637 5637
5618 5617 5615 5615 5615 5617 5618 5617 5617 5616 5615 5615 5615 5614 5614 5614 5614 5615 5615 5615 5616 5617 5619 5621 5623 5625 5626 5626 5627 5627 5628 5628 5629 5630 5630 5630 5630 5630 5630 5629 5629 5629 5629 5629
5612 5611 5610 5611 5609 5608 5608 5609 5608 5608 5608 5608 5608 5608 5607 5607 5607 5607 5608 5608 5609 5610 5612 5613 5615 5616 5618 5619 5619 5620 5621 5621 5621 5622 5622 5623 5623 5623 5623 5622 5622 5622 5623 5622
5607 5605 5605 5603 5603 5600 5599 5600 5600 5600 5600 5600 5600 5600 5600 5600 5600 5600 5601 5602 5602 5603 5604 5605 5606 5608 5609 5610 5611 5612 5613 5614 5614 5615 5616 5616 5616 5617 5617 5616 5615 5615 5615 5615
5601 5599 5597 5597 5594 5591 5592 5591 5591 5590 5591 5591 5591 5592 5592 5592 5592 5593 5593 5594 5595 5596 5596 5597 5598 5600 5601 5602 5603 5604 5605 5606 5607 5608 5609 5609 5609 5610 5609 5609 5608 5608 5608 5608
5595 5594 5592 5590 5586 5584 5582 5580 5579 5579 5579 5580 5581 5582 5583 5584 5584 5585 5585 5586 5587 5588 5589 5590 5591 5592 5593 5594 5595 5596 5597 5598 5599 5600 5600 5601 5602 5602 5602 5601 5601 5601 5601 5600